Regional Weather Roundup
Issued by NWS State College, PA

Home | Current Version | Previous Version | Text Only | Print | Product List | Glossary On
Versions: 1 2 3 4 5 6 7 8 9 10 11 12 13 14 15 16 17 18 19 20 21 22 23 24 25 26 27 28 29 30 31 32 33 34 35 36 37 38 39 40 41 42 43 44 45 46 47 48 49 50
000
ASUS41 KCTP 060803
RWRCTP

REGIONAL WEATHER ROUNDUP
NATIONAL WEATHER SERVICE STATE COLLEGE PA
300 AM EST FRI MAR 06 2015

Note: "fair" indicates few or no clouds below 12,000 feet with no
significant weather and/or obstructions to visibility.

* = STATION THAT DOES NOT REPORT PRECIPITATION /E.G. RAIN...SNOW...ETC/
    THUNDER OR FOG.

PAZ002>004-007>009-013>016-020>023-029>032-060900-
WESTERN PENNSYLVANIA

CITY           SKY/WX    TMP DP  RH WIND       PRES   REMARKS
ERIE           PTCLDY     0  -6  76 S5        30.50F WCI -10
MEADVILLE      MOCLDY    -2  -7  79 S6        30.43S WCI -14
FRANKLIN*      MOCLDY    -2  -8  78 SW3       30.43S
NEW CASTLE     FAIR      -4  -7  87 CALM      30.50F
BEAVER COUNTY  NOT AVBL
BUTLER*        MOCLDY    -2  -8  78 CALM      30.48R
PITTSBURGH INT MOCLDY     0  -5  79 CALM      30.47S
PITTSBURGH     PTCLDY     5   0  79 S5        30.47R WCI  -4
INDIANA*       CLEAR     -6  -9  84 CALM      30.48F
LATROBE        PTCLDY     0  -4  85 CALM      30.50S
WASHINGTON CO* PTCLDY    -6  -9  84 CALM      30.49S
$$

PAZ004>006-010>012-017>019-024>028-033>037-041-042-045-046-049>053-060900-
CENTRAL PENNSYLVANIA

CITY           SKY/WX    TMP DP  RH WIND       PRES   REMARKS
BRADFORD       MOCLDY    -1  -6  79 CALM      30.33F
DUBOIS         PTCLDY    -3  -6  87 W6        30.37F WCI -15
CLEARFIELD     PTCLDY    -1  -6  79 SW5       30.42S WCI -11
JOHNSTOWN      PTCLDY     1  -4  79 NW9       30.32F WCI -14
ALTOONA        PTCLDY     5  -4  66 NW10      30.42R WCI -10
STATE COLLEGE  PTCLDY     5  -4  66 CALM      30.44S
WILLIAMSPORT   CLEAR      8  -5  55 W6        30.49S WCI  -2
SELINSGROVE    CLEAR      8  -4  58 N5        30.50R WCI   0
FT INDIANTOWN  CLEAR     12  -3  50 VRB2      30.47R
CAPITAL CITY   CLEAR     12   1  61 NW5       30.49R WCI   4
HARRISBURG     CLEAR      9   1  70 CALM      30.49R
YORK           FAIR       2  -4  76 NW6       30.46R WCI  -9
$$

PAZ038>040-043-044-047-048-054-055-060>062-067>071-060900-
EASTERN PENNSYLVANIA

CITY           SKY/WX    TMP DP  RH WIND       PRES   REMARKS
SCRANTON       CLEAR      6  -4  63 N5        30.41S WCI  -3
MOUNT POCONO   CLEAR      3  -4  72 NW13      30.26F WCI -14
ALLENTOWN      CLEAR      8  -3  61 N7        30.45S WCI  -3
QUAKERTOWN*    SUNNY     10   0  61 N5        30.44S WCI   2
READING        CLEAR     10   0  63 NW9       30.46S WCI  -3
LANCASTER      CLEAR     10   0  63 N7        30.46R WCI  -1
COATESVILLE    SUNNY     14   5  67 N5        30.43R WCI   6
POTTSTOWN      CLEAR     11   1  64 N5        30.47R WCI   3
BLUE BELL      CLEAR     12   5  73 CALM      30.44S
DOYLESTOWN     CLEAR     10   2  69 N8        30.43R WCI  -2
WILLOW GROVE   NOT AVBL
NORTH PHILA    CLEAR     14   4  64 N9        30.47R WCI   2
PHILADELPHIA   CLEAR     15   3  59 N15       30.48R WCI   0
$$



USA.gov is the U.S. government's official web portal to all federal, state and local government web resources and services.